Simultaneous Nadir Overpasses (SNOs) Predictions

Prediction of SNOs between GOES-16 and NOAA-20 Satellite Orbit:

Table of predicted SNOs for the next 14.0 days since TLE Epoch: 8/30/2019
Index Date Time (GOES-16) GOES-16 Lat,Lon NOAA-20 Lat,Lon Distance(km) Time Diff (sec)
1 09/01/2019 06:37:55 0.00, -75.18 0.60, -77.89 308.40 80
2 09/02/2019 06:16:30 0.00, -75.19 -0.40, -73.36 208.23 80
3 09/03/2019 18:38:28 -0.00, -75.21 -0.78, -78.67 394.74 80
4 09/04/2019 18:22:23 -0.00, -75.21 0.22, -74.14 122.28 80
5 09/06/2019 06:44:12 -0.00, -75.22 0.96, -79.41 478.07 80
6 09/07/2019 06:22:48 -0.00, -75.23 -0.10, -74.89 39.18 80
7 09/09/2019 18:26:01 0.00, -75.27 -0.08, -75.67 45.37 80
8 09/10/2019 18:09:56 0.00, -75.28 0.92, -71.14 472.50 80
9 09/12/2019 06:31:45 -0.00, -75.30 0.26, -76.41 126.32 80
10 09/13/2019 06:10:21 -0.00, -75.32 -0.80, -71.89 391.96 80




NCC Satellite Simultaneous Nadir Overpasses (SNOs) Prediction Service
